Regional Weather Roundup
Issued by NWS Midland/Odessa, TX

Skip options and go directly to product.
Home | Oldest Version | Previous Version | Current Version | All | Text Only | Save Text | Print | Product List | Glossary On

Skip product version selection by date and time.   
888
ASUS44 KMAF 300010
RWRMAF
MIDLAND AREA WEATHER ROUNDUP
NATIONAL WEATHER SERVICE MIDLAND TX
700 PM CDT TUE JUL 29 2014

...IN SOUTHWEST TEXAS AND SOUTHEAST NEW MEXICO...

CITY           SKY/WX    TMP DP  RH WIND       PRES   REMARKS
ALPINE         MOSUNNY   91  46  20 S8        30.18F
ANDREWS        CLOUDY    92  52  25 SE10      30.06S
ARTESIA        SUNNY     91  57  31 S9        30.07F
BIG SPRING     PTSUNNY   84  65  51 NE22G28   30.07R
CARLSBAD       PTSUNNY   94  51  23 SE12      30.04F
DRYDEN           N/A    100  53  20 E20G26    29.99F
FORT STOCKTON  SUNNY     94  51  23 SE16G23   30.03F
GUAD PASS      MOSUNNY   81  56  42 NE13      30.24S
HOBBS          SUNNY     86  59  39 NE10      30.12S
MARFA          CLOUDY    90  48  24 SE9G16    30.19S
MIDLAND AIRPK  PTSUNNY   96  49  20 SE10      30.04S
MIDLAND INTL   PTSUNNY   95  51  22 S12       30.03S
ODESSA         PTSUNNY   94  48  20 S6        30.05S
PECOS          SUNNY     96  46  17 SE6       29.98S
PRESIDIO       FAIR     100  46  16 NE3       29.98F
SEMINOLE       PTSUNNY   90  57  33 E9G17     30.10S
SNYDER         CLOUDY    74  68  79 E16       30.10R
WINK           PTSUNNY   97  47  18 SE7       30.00S
$$
...OTHER STATIONS IN TEXAS...

CITY           SKY/WX    TMP DP  RH WIND       PRES   REMARKS
ABILENE        TSTM      76  72  87 E13       30.11R
AMARILLO       CLOUDY    76  61  59 SE14      30.13F
AUSTIN         PTSUNNY   91  70  49 NE17      30.01R
BROWNSVILLE    SUNNY     89  73  59 SE17      29.99S
CORPUS CHRISTI PTSUNNY   91  69  48 SE20      29.99S
DALLAS FTW     CLOUDY    83  58  42 CALM      30.08S
DEL RIO        SUNNY    100  55  22 E14G21    29.94F
EL PASO        PTSUNNY   87  58  37 SE3       30.09S
HOUSTON INT    PTSUNNY   84  75  74 SE3       30.03S
LUBBOCK        CLOUDY    78  64  61 E8        30.12F
SAN ANGELO     PTSUNNY   98  56  24 E13       30.01S
SAN ANTONIO    PTSUNNY   95  61  32 SE9       30.00S
WACO           PTSUNNY   88  53  30 E9        30.06F
WICHITA FALLS  NOT AVBL
$$
...OTHER LOCATIONS IN NEW MEXICO...

CITY           SKY/WX    TMP DP  RH WIND       PRES   REMARKS
ALAMAGORDO     PTSUNNY   84  57  39 SW7       30.13S
ALBUQUERQUE    PTSUNNY   75  62  64 E10       30.17F
CANNON AFB     SUNNY     77  65  64 S13       30.15F
CLOVIS         MOSUNNY   75  61  60 S15       30.17
HOLLOMAN AFB   CLOUDY    86  59  39 W2        30.10F
ROSWELL        PTSUNNY   79  67  66 NE7       30.09F
RUIDOSO        CLOUDY    72  55  56 SW9       30.33S
SANTA FE       PTSUNNY   73  54  51 E3        30.23F
TRUTH OR CONSE CLOUDY    74  62  66 VRB3      30.17F
TUCUMCARI      CLOUDY    81  61  50 SW13      30.10F
$$

USA.gov is the U.S. government's official web portal to all federal, state and local government web resources and services.